Location: Unspecified
(0.0000°N, 0.0000°E)
Time: 11:52:30
(UTC+00:00)

deb Explorer IX - Pass Details

Date: 24 November 2019
Orbit: 545 x 1105 km, 38.8° (Epoch: 08 December)

Event Time Altitude Azimuth Distance (km) Brightness Sun altitude
Rises 05:49:00 0° 337° (NNW) 3,056 ? 0.6°
Reaches altitude 10° 05:52:21 10° 359° (N) 2,032 ? 1.4°
Maximum altitude 05:55:11 16° 37° (NE) 1,604 ? 2.0°
Drops below altitude 10° 05:57:51 10° 75° (ENE) 1,891 ? 2.6°
Sets 06:00:47 0° 98° (E) 2,736 ? 3.3°
